Location: Newark
(1.4667°N, 173.0333°E)
Time: 06:13:47
(UTC+00:00)

Hubble Space Telescope - Pass Details

Date: 24 March 2019
Orbit: 537 x 540 km, 28.5° (Epoch: 23 April)

Event Time Altitude Azimuth Distance (km) Brightness Sun altitude
Exits shadow 17:41:02 15° 233° (SW) 1,467 2.5 -13.2°
Maximum altitude 17:42:22 18° 209° (SSW) 1,363 2.5 -12.9°
Drops below altitude 10° 17:45:12 10° 166° (SSE) 1,783 3.6 -12.2°
Sets 17:48:03 0° 146° (SE) 2,673 4.8 -11.5°
